Location: Newark
(45.5000°N, 11.4167°E)
Time: 18:51:29
(UTC+00:00)

Vanguard 3 - Pass Details

Date: 28 August 2019
Orbit: 508 x 3263 km, 33.4° (Epoch: 21 September)

Event Time Altitude Azimuth Distance (km) Brightness Sun altitude
Rises 15:38:46 0° 246° (WSW) 5,623 12.8 23.8°
Reaches altitude 10° 15:43:34 10° 238° (WSW) 4,119 12.2 22.9°
Maximum altitude 15:52:03 32° 182° (S) 1,955 9.4 21.5°
Drops below altitude 10° 15:57:23 10° 121° (ESE) 2,535 9.3 20.5°
Sets 15:59:39 0° 110° (ESE) 3,227 9.7 20.1°
